Weather History for Clinton-Sherman, OK

Change the Weather History Date:

Friday, September 6, 2013

  Actual Average Record
Temperature  
Mean Temperature 86 °F -  
Max Temperature 99 °F 88 °F 102 °F (1998)
Min Temperature 73 °F 64 °F 54 °F (2011)
Cooling Degree Days 20    
Growing Degree Days 36 (Base 50)    
Moisture  
Dew Point 59 °F    
Average Humidity 43    
Maximum Humidity 62    
Minimum Humidity 24    
Precipitation  
Precipitation 0.00 in - - ()
Sea Level Pressure  
Sea Level Pressure 30.01 in    
Wind  
Wind Speed 9 mph (SSE)    
Max Wind Speed 13 mph    
Max Gust Speed 26 mph    
Visibility 10 miles    
Events      
Averages and records for this station are not official NWS values.
T = Trace of Precipitation, MM = Missing Value Source: NWS Daily Summary

Daily Weather History Graph

Daily Weather History Graph

Search for Another Location

Airport:

Trip Planner

Search our weather history database for the weather conditions in past years. The results will help you decide how hot, cold, wet, or windy it might be!

Date:

Astronomy

Sep. 06, 2013 Rise Set
Actual Time 7:13 AM CDT 7:56 PM CDT
Civil Twilight 6:47 AM CDT 8:22 PM CDT
Nautical Twilight 6:16 AM CDT 8:52 PM CDT
Astronomical Twilight 5:45 AM CDT 9:23 PM CDT
Moon 8:22 AM CDT (9/6) 8:27 PM CDT (9/6)
Length of Visible Light 13h 34m
Length of Day
12h 43m
New Moon, 2% of the Moon is Illuminated
Sep 6
New Moon
Sep 12
First Quarter
Sep 19
Full
Sep 26
Last Quarter
Oct 4
New

Hourly Weather History & Observations

Time (CDT) Temp. Heat Index Dew Point Humidity Pressure Visibility Wind Dir Wind Speed Gust Speed Precip Events Conditions
12:53 AM 80.1 °F 81.1 °F 61.0 °F 52% 30.05 in 10.0 mi SE 11.5 mph - N/A   Clear
1:53 AM 78.1 °F - 61.0 °F 56% 30.05 in 10.0 mi SSE 11.5 mph - N/A   Clear
2:53 AM 75.9 °F - 60.1 °F 58% 30.04 in 10.0 mi SSE 8.1 mph - N/A   Clear
3:53 AM 73.9 °F - 60.1 °F 62% 30.04 in 10.0 mi SSE 6.9 mph - N/A   Clear
4:53 AM 73.9 °F - 59.0 °F 59% 30.03 in 10.0 mi South 6.9 mph - N/A   Clear
5:53 AM 73.0 °F - 59.0 °F 61% 30.04 in 10.0 mi South 6.9 mph - N/A   Clear
6:53 AM 73.0 °F - 59.0 °F 61% 30.05 in 10.0 mi SSE 8.1 mph - N/A   Clear
7:53 AM 73.9 °F - 59.0 °F 59% 30.06 in 10.0 mi South 8.1 mph - N/A   Clear
8:53 AM 78.1 °F - 59.0 °F 52% 30.07 in 10.0 mi SSE 11.5 mph - N/A   Clear
9:53 AM 82.9 °F 82.8 °F 59.0 °F 44% 30.06 in 10.0 mi SSW 9.2 mph - N/A   Clear
10:53 AM 89.1 °F 89.0 °F 61.0 °F 39% 30.06 in 10.0 mi South 11.5 mph - N/A   Clear
11:53 AM 91.0 °F 90.5 °F 60.1 °F 35% 30.06 in 10.0 mi SSW 8.1 mph 17.3 mph N/A   Clear
12:53 PM 93.9 °F 93.6 °F 60.1 °F 32% 30.04 in 10.0 mi SSW 8.1 mph - N/A   Clear
1:53 PM 93.9 °F 92.9 °F 57.9 °F 30% 30.01 in 10.0 mi SW 4.6 mph - N/A   Partly Cloudy
2:53 PM 97.0 °F 95.7 °F 57.0 °F 26% 29.99 in 10.0 mi Variable 4.6 mph - N/A   Scattered Clouds
3:53 PM 98.1 °F 96.4 °F 55.9 °F 24% 29.97 in 10.0 mi SE 11.5 mph 16.1 mph N/A   Mostly Cloudy
4:53 PM 97.0 °F 95.0 °F 55.0 °F 24% 29.95 in 10.0 mi SSE 6.9 mph 26.5 mph N/A   Partly Cloudy
5:53 PM 98.1 °F 96.4 °F 55.9 °F 24% 29.94 in 10.0 mi SE 10.4 mph - N/A   Partly Cloudy
6:53 PM 96.1 °F 94.5 °F 55.9 °F 26% 29.94 in 10.0 mi SE 5.8 mph - N/A   Clear
7:53 PM 91.0 °F 89.2 °F 55.9 °F 30% 29.94 in 10.0 mi ESE 8.1 mph - N/A   Clear
8:53 PM 88.0 °F 86.7 °F 57.0 °F 35% 29.95 in 10.0 mi SE 11.5 mph - N/A   Clear
9:53 PM 86.0 °F 85.7 °F 60.1 °F 41% 29.96 in 10.0 mi SE 11.5 mph - N/A   Clear
10:53 PM 84.0 °F 84.4 °F 61.0 °F 46% 29.96 in 10.0 mi SE 12.7 mph - N/A   Clear
11:53 PM 82.0 °F 82.4 °F 60.1 °F 47% 29.96 in 10.0 mi SSE 8.1 mph - N/A   Clear